Dewpoint
68 67 68 68 67 67 66 66 66 66 66 66 66 65 63 64 65 66 66 66 65 64 63 62 62 61 60 59 59 57 62 63 63
68 68 68 67 66 65 64 64 64 65 65 64 63 62 63 64 65 66 67 66 65 64 62 62 61 59 58 58 58 62 62 62 62
67 67 67 67 66 65 63 63 62 63 62 61 60 60 61 64 65 66 66 65 64 62 62 61 61 58 59 59 63 63 61 60 60
67 67 67 67 66 64 64 63 62 62 61 59 57 56 58 64 65 65 66 64 62 61 61 63 60 59 61 61 63 60 60 59 57
67 66 67 66 65 65 65 64 62 62 61 58 54 53 55 63 64 65 65 63 61 62 62 60 60 59 59 61 61 59 58 57 55
66 66 66 66 65 64 65 64 63 61 59 57 54 53 52 61 63 64 65 63 61 62 61 60 59 60 61 63 60 59 58 57 55
63 65 65 65 64 64 65 65 60 57 56 56 55 53 52 53 62 64 64 63 62 62 61 59 58 61 63 62 61 59 57 56 56
61 64 64 64 63 63 63 63 58 55 54 53 54 54 50 50 61 64 63 62 60 61 59 59 59 62 62 61 59 57 56 56 53
62 61 60 60 60 60 59 59 57 54 52 51 51 50 51 53 58 60 62 62 61 60 59 59 61 62 61 60 58 56 57 55 54
57 60 59 58 57 57 56 55 54 51 50 50 49 49 56 57 58 61 62 62 62 60 59 58 61 62 60 59 57 56 55 54 54
54 57 58 57 55 54 54 53 52 51 50 49 50 56 60 62 61 63 63 62 61 60 58 58 61 61 60 58 57 56 55 54 53
54 58 59 58 58 52 50 51 51 50 50 50 53 55 60 63 64 64 64 63 62 60 59 59 62 61 60 57 56 55 54 54 53
55 59 60 59 57 54 50 51 51 51 51 50 51 54 60 63 63 64 64 63 61 60 60 61 62 60 59 57 56 55 54 53 53
57 59 59 57 55 54 51 51 52 51 51 51 53 53 57 62 63 62 62 60 60 59 59 61 62 60 58 56 56 55 54 53 53
58 59 58 56 54 54 52 51 52 52 54 54 55 56 57 58 62 62 61 59 59 58 59 61 61 60 59 57 56 55 54 53 53
56 59 58 57 54 53 54 52 52 53 55 55 55 56 57 57 57 60 60 58 57 57 58 59 59 59 59 58 56 56 54 53 53
55 57 57 56 55 54 54 52 52 54 55 52 51 51 53 56 57 58 59 59 57 57 56 58 59 59 59 58 57 56 54 54 53
55 54 55 56 55 54 53 53 53 53 54 52 49 48 47 52 56 57 57 58 58 57 56 57 58 58 58 58 57 56 55 54 54
55 54 53 54 55 54 52 53 54 54 53 54 52 50 49 46 50 55 57 57 57 58 58 56 57 57 58 58 56 56 56 55 54
58 56 54 54 55 54 52 52 53 54 54 53 50 49 48 48 49 48 54 56 56 58 58 58 58 57 58 58 56 55 55 55 55
Wind_Speed
16 16 19 19 18 17 16 17 16 14 11 8 8 8 10 11 16 18 18 14 21 21 20 20 19 20 20 20 19 21 21 24 25
18 19 20 19 18 17 15 15 15 13 10 7 8 12 10 14 16 18 15 16 21 20 19 18 19 18 18 18 20 20 25 25 25
20 20 19 18 17 15 14 15 14 13 9 6 6 11 12 14 16 16 14 18 19 19 18 18 19 17 19 19 18 25 25 24 23
20 20 18 18 16 14 14 14 14 12 10 6 4 7 8 12 15 15 12 17 18 17 17 18 18 17 17 18 24 25 23 23 21
18 17 17 17 16 14 16 14 13 12 10 6 2 4 5 13 14 14 12 17 16 17 18 17 17 16 17 17 23 24 22 21 21
17 16 18 17 16 16 14 15 13 12 9 6 2 2 2 12 12 12 16 16 15 17 17 15 15 16 14 21 22 22 21 21 20
13 16 19 18 16 16 13 15 14 13 8 5 4 4 5 9 11 13 18 16 15 16 16 15 16 15 20 23 22 22 19 20 20
10 13 14 13 14 12 11 11 11 10 12 8 9 10 8 7 14 15 17 15 14 15 15 15 15 14 20 21 20 18 18 18 18
15 14 13 14 12 14 12 12 12 12 15 12 10 5 9 10 13 14 14 15 16 15 15 16 14 17 21 20 19 16 17 17 17
12 14 14 12 14 16 14 15 14 8 8 7 7 3 9 15 13 11 15 18 17 17 14 15 16 19 20 17 18 16 16 17 16
13 14 16 14 14 16 16 14 11 8 8 7 5 10 10 11 14 11 15 19 17 15 15 16 16 20 19 16 16 15 15 15 15
13 15 16 13 8 11 11 8 11 9 8 8 10 9 9 9 12 12 12 12 16 14 15 15 18 20 20 15 15 15 14 15 15
15 15 15 12 9 6 11 9 10 11 10 8 5 12 12 12 12 12 12 9 9 11 13 15 19 19 19 15 15 15 14 14 14
18 16 14 16 12 8 14 8 8 11 10 10 6 7 10 14 11 12 12 11 11 10 12 14 18 17 18 16 15 14 14 14 14
18 16 18 16 14 12 12 14 8 10 11 12 8 5 6 9 14 14 11 11 11 10 11 15 16 17 15 17 15 15 15 14 14
18 18 18 17 18 16 13 13 13 10 13 12 6 6 5 2 4 13 15 15 13 13 14 13 14 14 16 17 15 16 15 15 14
17 20 21 21 18 18 15 16 11 8 15 9 9 5 1 3 2 4 6 7 10 11 11 14 16 15 13 15 17 17 16 16 15
22 20 21 23 19 19 19 18 19 14 15 16 8 6 7 6 6 7 7 7 7 8 11 8 16 16 16 16 16 16 16 16 15
21 19 19 22 18 17 19 17 18 14 19 12 7 3 4 7 6 7 14 12 11 10 7 10 11 13 15 17 18 20 18 17 16
19 16 18 20 18 17 20 18 20 16 16 15 7 5 3 4 5 8 8 8 11 11 14 10 11 12 11 16 18 23 22 20 19
Wind_Direction
136 129 121 116 113 113 111 110 105 99 92 88 64 38 23 77 92 97 103 104 100 97 94 93 91 91 88 88 91 88 83 81 80
136 128 124 121 118 118 116 113 111 107 95 76 61 35 52 77 90 98 105 111 104 100 97 96 96 90 91 96 98 95 89 82 78
138 128 128 127 125 124 124 121 116 112 103 75 57 52 52 81 89 99 106 112 104 100 100 101 100 95 100 103 92 94 88 83 80
133 130 131 129 129 130 132 127 122 117 107 87 32 58 51 98 96 101 106 112 106 102 105 106 102 100 102 102 97 93 87 84 82
135 140 139 137 136 133 136 130 126 120 114 108 48 37 70 106 102 110 119 113 110 110 111 110 108 108 107 106 102 95 92 91 86
148 151 150 145 146 135 137 133 126 115 113 126 148 319 11 127 116 121 125 118 114 116 114 113 116 114 111 108 103 97 95 96 93
163 156 155 154 151 137 132 140 145 131 131 150 198 239 276 128 126 125 128 123 121 119 118 115 121 116 113 106 101 98 99 101 98
148 152 156 153 143 132 136 151 175 181 154 172 200 223 199 166 131 141 139 136 130 127 125 125 127 119 116 108 102 101 103 103 101
140 145 153 152 164 153 161 174 200 210 168 193 218 216 169 147 134 145 151 147 141 134 133 133 125 133 119 113 106 112 107 108 104
152 159 171 159 187 161 178 190 210 182 159 179 177 235 63 103 125 133 144 142 145 141 141 143 135 126 115 112 115 114 113 113 109
202 169 168 176 200 166 183 199 169 172 169 146 167 93 65 84 113 127 146 149 147 146 146 152 145 132 123 124 121 121 121 116 114
200 167 169 172 158 172 176 183 161 167 151 162 149 131 115 103 115 128 137 151 156 157 154 162 150 139 130 132 130 128 131 124 126
186 161 155 152 162 177 177 175 164 172 158 158 127 140 122 120 126 133 140 162 161 155 155 153 153 145 137 141 140 138 138 135 130
166 158 149 154 182 186 169 167 173 171 161 150 99 134 128 139 134 135 142 165 162 157 158 144 156 155 146 146 148 148 147 146 140
161 153 152 156 176 183 160 171 197 171 145 124 113 72 72 144 158 162 166 181 173 160 150 143 153 161 155 153 155 156 157 157 153
161 163 162 169 177 176 172 165 194 170 133 124 99 78 55 51 55 176 179 176 180 164 159 156 157 170 167 163 167 165 168 167 166
178 168 172 174 177 174 179 170 179 161 150 152 142 155 240 268 234 119 156 169 170 163 170 175 169 174 179 176 174 172 175 176 178
190 182 178 180 178 178 177 178 185 176 174 163 158 155 206 161 203 192 187 183 170 176 193 173 172 176 175 179 178 179 183 186 186
188 189 181 180 179 175 175 179 186 173 181 189 206 163 147 162 176 199 190 194 198 197 199 199 186 162 179 181 182 185 189 194 196
197 194 177 177 180 176 176 180 182 183 181 195 171 189 185 166 151 168 180 196 197 200 204 194 186 186 176 184 188 190 193 198 205